Location: Unspecified
(58.9933°N, 5.6375°E)
Time: 09:51:35
(UTC+02:00)

Resurs 1-4 Rocket - Visible Passes

Search period start: 24 April 2014 00:00
Search period end: 04 May 2014 00:00
Orbit: 800 x 815 km, 98.3° (Epoch: 22 April)

Date Brightness Start Highest point End Pass type
(mag) Time Alt. Az. Time Alt. Az. Time Alt. Az.
24 Apr 4.9 04:26:29 10° NE 04:29:06 14° E 04:31:43 10° ESE visible
27 Apr 4.6 04:52:20 10° NE 04:56:15 21° E 05:00:09 10° SE visible
28 Apr 4.8 04:28:38 10° NE 04:31:26 14° E 04:34:15 10° ESE visible
02 May 4.8 04:30:47 10° NE 04:33:46 15° E 04:36:45 10° ESE visible
